User: anonymous   Login
Location: Houston
(29.7630°N, 95.3630°W)
Time: 09:16:41
(UTC-05:00)
Language:

Saudisat 1A - Orbit

View from above orbital plane
View from above orbital plane
View from above satellite
View from above satellite

Ground track
Ground track

The orbit data is extracted from the following two-line orbital elements,

1 26546U 00057B   16244.15724200  .00000241  00000-0  40742-4 0  9991
2 26546  64.5547 162.9485 0047435 259.6446  99.9314 14.90299672863438
Epoch (UTC): 31 August 2016 03:46:25
Eccentricity: 0.0047435
inclination: 64.5547°
perigee height: 564 km
apogee height: 630 km
right ascension of ascending node: 162.9485°
argument of perigee: 259.6446°
revolutions per day: 14.90299672
mean anomaly at epoch: 99.9314°
orbit number at epoch: 86343

The dashed part of the orbit path shows where the satellite is in the earth's shadow,  

DLR